TimeCDT,TemperatureF,Dew PointF,Humidity,Sea Level PressureIn,VisibilityMPH,Wind Direction,Wind SpeedMPH,Gust SpeedMPH,PrecipitationIn,Events,Conditions,WindDirDegrees,DateUTC
12:53 AM,75.0,66.0,73,29.71,10.0,SSE,19.6,29.9,N/A,,Overcast,160,2013-04-18 05:53:00
1:53 AM,73.9,64.9,73,29.70,10.0,South,23.0,31.1,N/A,,Overcast,170,2013-04-18 06:53:00
2:53 AM,73.9,64.9,73,29.68,10.0,South,18.4,29.9,N/A,,Mostly Cloudy,180,2013-04-18 07:53:00
3:53 AM,73.9,64.9,73,29.66,10.0,South,16.1,25.3,N/A,,Overcast,180,2013-04-18 08:53:00
4:53 AM,73.9,64.0,71,29.65,10.0,South,20.7,31.1,N/A,,Overcast,180,2013-04-18 09:53:00
5:53 AM,73.9,64.9,73,29.64,10.0,South,20.7,28.8,N/A,,Overcast,170,2013-04-18 10:53:00
6:53 AM,73.9,64.0,71,29.66,10.0,South,19.6,25.3,N/A,,Mostly Cloudy,190,2013-04-18 11:53:00
7:53 AM,73.0,64.9,76,29.74,10.0,SW,9.2,-,0.00,Rain,Light Rain,230,2013-04-18 12:53:00
8:22 AM,66.2,62.6,88,29.77,6.0,NNW,8.1,-,0.14,Rain,Rain,330,2013-04-18 13:22:00
8:43 AM,64.4,62.6,94,29.78,1.5,NNW,10.4,-,0.40,Rain,Heavy Rain,340,2013-04-18 13:43:00
8:53 AM,63.0,61.0,93,29.78,1.2,WNW,11.5,-,0.57,Rain,Heavy Rain,300,2013-04-18 13:53:00
8:58 AM,62.6,60.8,94,29.80,3.0,WNW,16.1,20.7,0.02,Rain,Heavy Rain,300,2013-04-18 13:58:00
9:21 AM,60.8,57.2,88,29.81,7.0,NW,19.6,27.6,0.06,Rain-Thunderstorm,Rain,310,2013-04-18 14:21:00
9:29 AM,57.2,55.4,94,29.82,1.8,NW,24.2,28.8,0.20,Rain-Thunderstorm,Heavy Rain,320,2013-04-18 14:29:00
9:36 AM,55.4,53.6,94,29.83,1.0,NNW,11.5,28.8,0.29,Rain-Thunderstorm,Heavy Rain,330,2013-04-18 14:36:00
9:40 AM,55.4,53.6,94,29.82,2.0,NNW,12.7,21.9,0.31,Rain-Thunderstorm,Heavy Rain,340,2013-04-18 14:40:00
9:47 AM,55.4,53.6,94,29.83,4.0,NW,9.2,18.4,0.33,Rain,Rain,320,2013-04-18 14:47:00
9:53 AM,55.0,53.1,93,29.81,8.0,NW,13.8,18.4,0.33,Rain,Light Rain,320,2013-04-18 14:53:00
10:39 AM,53.6,48.2,82,29.85,10.0,NW,18.4,26.5,0.04,,Overcast,320,2013-04-18 15:39:00
10:49 AM,51.8,48.2,88,29.87,10.0,NW,15.0,21.9,0.04,Rain,Light Rain,320,2013-04-18 15:49:00
10:53 AM,52.0,48.9,89,29.85,10.0,NNW,13.8,20.7,0.04,Rain,Light Rain,330,2013-04-18 15:53:00
11:30 AM,50.0,46.4,87,29.88,10.0,NW,23.0,29.9,0.00,,Overcast,310,2013-04-18 16:30:00
11:53 AM,50.0,46.0,86,29.88,10.0,NW,15.0,26.5,0.01,Rain,Light Rain,310,2013-04-18 16:53:00
12:00 PM,50.0,46.4,87,29.88,9.0,NW,17.3,24.2,0.01,Rain-Thunderstorm,Light Rain,320,2013-04-18 17:00:00
12:41 PM,48.2,44.6,87,29.89,10.0,NNW,12.7,19.6,0.02,Rain-Thunderstorm,Light Rain,340,2013-04-18 17:41:00
12:53 PM,48.9,45.0,86,29.95,10.0,WNW,9.2,24.2,0.02,Rain-Thunderstorm,Light Rain,290,2013-04-18 17:53:00
1:06 PM,48.2,44.6,87,29.89,4.0,NW,15.0,23.0,0.05,Rain-Thunderstorm,Thunderstorms and Rain,320,2013-04-18 18:06:00
1:24 PM,48.2,46.4,93,29.91,10.0,NW,11.5,-,0.08,Rain,Light Rain,310,2013-04-18 18:24:00
1:53 PM,48.0,45.0,89,29.90,10.0,NW,10.4,-,0.08,,Overcast,310,2013-04-18 18:53:00
2:36 PM,48.2,44.6,87,29.88,8.0,NNW,12.7,21.9,0.03,Rain-Thunderstorm,Light Thunderstorms and Rain,330,2013-04-18 19:36:00
2:53 PM,48.9,45.0,86,29.90,10.0,NW,16.1,23.0,0.11,Rain-Thunderstorm,Light Thunderstorms and Rain,320,2013-04-18 19:53:00
3:02 PM,48.2,44.6,87,29.92,10.0,NW,16.1,-,0.00,,Overcast,320,2013-04-18 20:02:00
3:41 PM,50.0,44.6,82,29.91,10.0,NNW,13.8,-,0.00,Rain,Light Rain,330,2013-04-18 20:41:00
3:53 PM,50.0,44.1,80,29.90,10.0,NNW,13.8,20.7,0.00,,Overcast,330,2013-04-18 20:53:00
4:40 PM,50.0,42.8,76,29.92,10.0,NNW,15.0,26.5,N/A,,Overcast,330,2013-04-18 21:40:00
4:53 PM,50.0,42.1,74,29.91,10.0,NW,12.7,21.9,N/A,,Overcast,320,2013-04-18 21:53:00
5:53 PM,52.0,42.1,69,29.93,10.0,NNW,13.8,-,N/A,,Mostly Cloudy,330,2013-04-18 22:53:00
6:53 PM,53.1,42.1,66,29.93,10.0,NNW,10.4,-,N/A,,Clear,330,2013-04-18 23:53:00
7:53 PM,52.0,39.9,63,29.96,10.0,NNW,10.4,-,N/A,,Clear,330,2013-04-19 00:53:00
8:53 PM,51.1,37.0,59,30.02,10.0,NNW,15.0,21.9,N/A,,Clear,340,2013-04-19 01:53:00
9:53 PM,48.9,35.1,59,30.07,10.0,NNW,17.3,24.2,N/A,,Clear,330,2013-04-19 02:53:00
10:53 PM,48.0,34.0,58,30.12,10.0,NNW,12.7,24.2,N/A,,Clear,330,2013-04-19 03:53:00
11:53 PM,46.9,33.1,59,30.13,10.0,NNW,13.8,23.0,N/A,,Clear,330,2013-04-19 04:53:00